Wind_Speed
31 33 34 37 41 42 42 44 46 47 47 49 50 50 47 47 48 52 53 52 55 56 56 60 58 62 60 59 55 54 52 49 52 53 49 41 40 43 40 37 34 32 31 31
32 32 35 37 39 42 44 45 48 48 48 53 53 51 48 50 51 50 51 52 53 53 55 58 61 62 63 62 60 52 52 56 57 56 52 45 46 44 44 39 37 36 32 32
27 29 33 36 39 41 43 46 48 50 51 53 56 53 51 51 55 56 56 56 54 53 53 54 57 63 67 68 65 60 55 54 52 53 52 52 51 43 40 40 41 38 32 33
27 29 32 36 39 41 43 45 49 51 53 55 54 59 55 53 57 59 59 60 60 57 56 55 53 58 63 68 69 67 64 60 58 53 50 48 47 47 39 43 43 37 31 33
27 28 30 33 35 38 43 46 49 51 54 55 56 61 55 56 59 59 60 63 62 61 62 62 60 56 54 60 66 68 67 62 59 53 48 49 40 37 39 42 40 38 32 34
23 25 28 30 32 35 39 43 47 49 51 53 52 52 56 56 58 63 66 63 65 63 64 63 61 60 54 51 56 60 62 60 55 50 33 36 38 38 43 43 42 41 36 36
16 13 15 21 28 31 33 39 44 42 40 43 34 51 57 43 53 64 69 70 69 67 66 63 62 59 58 53 50 52 55 54 49 46 37 34 29 37 45 45 44 42 39 37
11 8 14 23 26 31 36 27 32 36 30 31 24 43 32 33 42 47 55 65 71 67 70 65 63 60 58 57 55 50 50 48 45 44 36 31 35 38 37 42 41 31 35 38
14 14 14 21 23 30 31 34 27 37 39 38 33 30 31 31 34 38 42 46 54 63 60 68 63 61 58 58 53 55 49 48 47 40 34 35 36 37 39 42 37 26 36 34
19 21 16 18 21 28 31 30 26 27 34 41 36 35 37 31 34 37 37 44 48 53 54 62 62 64 61 57 53 48 51 47 39 39 36 31 31 36 38 39 37 29 33 33
21 22 16 19 22 21 22 24 23 28 29 35 37 22 22 28 34 31 34 35 40 43 47 53 69 67 62 54 52 47 47 43 34 35 34 34 33 37 40 31 32 33 31 36
16 20 16 16 21 20 22 20 24 28 29 32 38 25 29 30 30 32 34 35 44 34 49 61 58 60 52 57 52 46 36 40 41 37 37 37 37 38 38 34 31 31 35 34
17 16 16 13 18 19 19 20 24 29 32 28 31 33 36 32 36 36 38 44 41 31 57 54 46 54 57 57 52 47 40 38 38 35 38 40 37 35 35 31 31 33 30 27
19 16 17 15 19 22 16 17 24 31 33 31 31 31 27 28 30 30 35 39 25 36 61 34 44 52 55 43 52 36 36 38 38 37 38 35 30 32 34 31 30 27 26 25
17 14 16 15 17 19 24 23 14 21 24 29 29 38 39 35 32 34 31 29 13 35 48 42 38 51 45 36 38 44 42 41 39 36 34 29 30 33 32 29 26 27 25 22
20 14 16 11 21 20 22 21 20 16 19 21 24 24 26 34 34 30 25 14 19 53 37 44 50 51 48 45 46 43 41 38 34 32 28 32 32 29 27 26 27 24 23 20
24 18 19 13 15 18 20 20 25 25 22 19 20 19 16 19 17 17 21 20 26 42 35 43 54 50 53 48 52 45 36 36 32 30 33 32 29 29 29 27 24 23 18 15
19 18 25 26 29 16 20 18 22 17 19 22 19 23 27 24 16 9 19 21 15 32 39 44 48 47 51 50 53 51 41 40 34 35 33 31 31 29 26 25 21 16 13 11
16 19 18 17 14 13 18 19 21 16 18 16 28 32 30 17 3 8 18 14 6 22 36 46 48 47 44 50 44 44 43 37 35 35 32 32 29 26 24 20 16 13 12 10
18 17 19 20 19 14 17 19 20 20 22 27 26 36 26 17 3 10 13 19 16 21 39 46 42 37 39 46 43 30 49 40 37 33 32 30 28 25 22 19 15 13 11 12
17 16 18 21 24 16 20 22 25 25 29 29 29 35 35 12 9 12 20 20 21 21 34 42 38 38 31 29 33 32 49 44 37 34 32 29 25 23 20 16 13 11 12 13
16 18 19 21 22 21 23 24 25 31 31 35 36 40 38 20 11 11 24 27 28 35 34 36 37 36 35 29 34 40 40 44 37 34 29 26 25 21 17 13 12 11 11 11
14 17 21 22 20 27 27 28 30 33 38 35 43 42 41 21 17 19 27 34 30 30 34 35 34 36 29 25 26 42 43 39 34 31 29 27 22 19 16 14 11 10 9 10
16 23 24 23 20 25 27 28 29 32 38 41 44 50 26 12 20 26 27 39 38 36 34 32 33 36 27 29 32 34 39 36 31 28 27 23 20 17 14 12 9 8 8 9
22 23 22 20 24 26 24 26 31 39 46 43 37 32 23 16 25 31 34 34 44 38 31 39 41 32 32 29 50 32 36 35 31 29 24 23 19 14 11 9 7 6 6 8
21 18 17 20 24 28 28 35 38 42 23 25 27 21 22 19 32 33 40 35 51 44 39 42 38 33 36 31 31 39 36 35 31 26 24 22 16 12 9 6 4 4 4 8
Wind_Direction
250 249 249 250 250 248 247 247 246 246 248 252 255 252 250 249 245 245 246 239 236 238 229 230 239 244 248 250 250 245 248 249 253 257 260 265 266 268 272 278 284 293 301 308
256 256 257 256 256 258 258 256 255 253 250 254 251 248 248 252 252 249 249 250 247 241 235 232 233 231 238 244 252 249 242 246 252 257 261 261 262 267 274 280 283 287 294 303
258 260 259 261 261 261 261 260 259 259 256 255 257 252 250 247 249 250 249 247 246 245 245 238 233 234 226 236 244 253 253 254 257 256 258 264 266 270 279 279 277 279 289 300
268 265 263 265 266 267 267 265 265 264 264 262 262 261 255 251 249 249 247 247 247 247 244 243 238 235 235 231 235 243 249 255 258 259 256 257 265 268 269 269 274 280 287 294
269 268 269 269 267 265 265 265 266 266 267 266 264 266 258 257 255 251 250 248 244 242 243 243 242 236 237 234 231 238 243 249 253 257 259 253 259 261 263 263 272 274 280 291
265 267 268 272 273 271 270 265 262 263 263 262 261 264 258 261 259 253 250 246 250 244 240 241 240 240 234 233 235 232 238 242 246 252 256 249 251 247 260 266 268 272 278 288
289 303 305 308 300 303 301 294 284 273 266 267 265 257 262 264 259 256 254 251 247 245 244 241 239 240 240 236 231 235 237 242 245 248 245 248 252 250 251 253 260 265 272 282
288 298 314 308 313 316 316 305 285 282 269 251 255 263 260 267 270 266 257 255 253 246 242 240 239 237 238 239 239 235 236 240 243 246 245 244 242 248 256 257 254 254 267 274
290 301 314 303 312 313 317 299 285 271 268 268 262 259 271 273 267 276 269 263 258 251 243 238 235 234 234 237 237 240 239 237 239 246 249 240 242 246 252 260 251 240 260 268
293 289 311 301 310 311 318 302 296 277 273 266 269 268 273 273 277 258 269 269 262 254 240 227 220 228 231 235 237 234 240 243 242 240 242 243 246 244 252 257 246 235 249 266
293 291 308 314 321 319 305 290 294 290 272 265 275 260 300 275 279 273 276 274 262 256 240 210 205 221 228 230 233 234 234 236 236 243 241 244 245 244 245 250 244 235 249 258
288 299 311 310 312 321 322 296 286 274 288 271 270 262 285 284 292 282 290 263 278 247 209 191 199 209 213 224 226 229 228 227 236 238 233 239 242 242 244 246 226 233 246 246
287 305 312 303 314 316 320 305 287 281 281 280 273 274 285 282 289 303 305 289 270 240 203 193 189 193 204 221 226 223 220 218 224 229 231 237 240 243 238 219 220 235 236 243
285 298 304 310 315 326 323 291 288 285 281 286 281 281 291 291 285 306 313 288 281 210 196 188 208 197 206 217 229 213 210 212 220 226 229 235 238 231 209 211 223 226 232 235
286 299 300 306 321 331 334 325 297 282 295 286 287 283 273 286 276 302 313 315 232 208 184 214 200 195 202 207 214 211 204 209 217 225 229 227 217 206 209 213 214 221 230 238
281 288 292 285 298 318 327 308 312 298 289 300 310 316 287 277 286 300 303 323 200 206 202 203 199 205 207 209 210 208 207 209 214 218 219 215 217 207 210 212 214 222 227 231
274 282 285 278 307 307 318 312 314 308 289 308 317 309 306 305 304 290 279 272 157 203 170 188 205 202 207 211 206 205 204 196 203 206 205 204 202 205 206 210 212 217 221 225
271 287 295 273 298 301 307 319 330 308 303 307 324 324 298 304 281 279 264 256 169 209 229 221 211 209 210 210 209 211 188 184 187 196 194 195 197 201 205 206 204 214 220 235
269 279 290 300 283 306 299 313 315 317 310 293 321 323 320 307 307 277 268 250 222 212 201 202 207 212 213 202 202 209 194 168 184 184 183 190 194 199 200 198 205 215 230 239
262 278 285 290 290 297 297 298 308 297 305 309 318 334 333 298 300 273 253 254 241 221 210 212 204 201 200 200 201 220 159 164 175 174 185 189 192 191 193 199 204 212 224 237
271 272 277 281 286 294 292 300 304 301 308 310 319 325 336 296 214 225 223 229 224 224 206 205 200 200 197 219 200 170 160 162 163 176 183 186 186 187 191 194 203 212 224 242
279 276 274 277 282 291 296 299 301 314 295 302 315 315 320 293 213 199 222 227 219 211 210 203 190 193 199 210 221 134 145 151 164 174 179 180 182 182 184 193 203 214 230 245
269 277 277 279 287 296 296 297 304 297 311 301 302 306 305 269 230 184 204 212 225 213 203 191 189 195 199 205 193 146 147 155 163 169 176 177 175 178 184 192 202 220 238 238
271 270 276 283 290 298 306 303 311 304 306 305 305 304 302 238 211 192 189 202 211 208 201 189 189 197 201 199 160 146 149 151 162 169 169 169 172 180 185 190 203 223 235 239
261 266 281 292 290 295 290 307 299 309 314 307 299 298 286 233 211 197 186 196 208 197 191 181 187 189 194 187 153 156 157 152 162 162 164 166 173 176 182 194 210 228 235 256
277 296 294 300 293 287 302 303 308 312 310 301 303 301 271 232 191 191 189 195 198 196 177 179 183 194 191 187 162 150 155 154 155 156 163 163 166 172 179 187 202 233 276 292
Height
5717 5719 5720 5720 5719 5722 5724 5726 5727 5728 5732 5731 5732 5740 5748 5750 5754 5756 5758 5762 5765 5771 5777 5774 5784 5788 5790 5793 5801 5805 5808 5812 5815 5817 5820 5824 5827 5828 5830 5831 5830 5829 5830 5829
5710 5711 5711 5712 5711 5712 5713 5715 5715 5718 5722 5716 5721 5730 5738 5738 5739 5744 5745 5748 5752 5758 5764 5768 5768 5773 5779 5782 5785 5791 5798 5802 5805 5808 5814 5816 5817 5819 5822 5823 5823 5822 5822 5822
5701 5701 5700 5699 5699 5700 5701 5702 5703 5704 5706 5706 5703 5716 5722 5728 5726 5727 5730 5733 5738 5742 5747 5754 5759 5761 5765 5772 5775 5778 5784 5790 5794 5799 5803 5805 5807 5811 5816 5817 5817 5815 5814 5815
5692 5692 5691 5689 5689 5689 5688 5688 5688 5690 5690 5692 5692 5694 5706 5714 5713 5714 5716 5717 5720 5725 5729 5735 5742 5751 5753 5758 5766 5769 5773 5777 5781 5787 5793 5797 5799 5804 5807 5807 5809 5809 5809 5807
5684 5683 5682 5682 5681 5680 5677 5678 5676 5677 5675 5673 5680 5672 5696 5695 5696 5699 5697 5698 5704 5707 5713 5719 5726 5735 5743 5745 5750 5757 5763 5767 5771 5776 5781 5787 5788 5795 5796 5796 5799 5803 5801 5800
5678 5676 5674 5672 5671 5669 5666 5665 5664 5663 5661 5658 5662 5660 5680 5676 5675 5672 5670 5679 5683 5690 5696 5702 5709 5715 5726 5734 5738 5743 5749 5755 5760 5765 5774 5775 5777 5783 5785 5785 5788 5792 5793 5792
5669 5666 5665 5663 5660 5658 5656 5652 5649 5651 5648 5648 5648 5647 5660 5657 5649 5650 5652 5659 5665 5670 5679 5689 5697 5703 5712 5720 5723 5732 5737 5743 5750 5755 5762 5766 5768 5772 5774 5773 5777 5781 5784 5784
5662 5663 5661 5657 5654 5649 5646 5645 5639 5633 5634 5636 5639 5635 5643 5642 5638 5634 5635 5638 5641 5651 5658 5670 5682 5691 5699 5706 5715 5720 5726 5733 5739 5744 5753 5757 5760 5762 5763 5762 5765 5771 5775 5775
5656 5657 5655 5651 5649 5644 5641 5635 5635 5629 5628 5625 5630 5632 5632 5630 5628 5624 5622 5620 5621 5630 5642 5654 5665 5674 5685 5693 5702 5711 5719 5724 5728 5735 5741 5747 5750 5751 5752 5751 5755 5761 5765 5766
5651 5649 5650 5647 5645 5638 5632 5629 5629 5625 5620 5618 5620 5620 5620 5620 5617 5613 5610 5608 5610 5613 5621 5633 5647 5657 5668 5681 5690 5700 5708 5714 5722 5725 5729 5736 5739 5741 5740 5742 5747 5752 5755 5758
5647 5645 5645 5639 5637 5632 5627 5622 5621 5620 5618 5613 5610 5612 5612 5607 5605 5605 5602 5601 5598 5598 5606 5617 5632 5642 5655 5669 5678 5688 5697 5705 5710 5714 5719 5723 5727 5729 5733 5736 5741 5744 5747 5749
5642 5639 5638 5635 5631 5626 5622 5618 5615 5614 5611 5609 5606 5604 5604 5602 5599 5595 5592 5589 5588 5589 5595 5605 5616 5628 5644 5654 5666 5678 5687 5694 5701 5705 5710 5714 5717 5720 5724 5728 5732 5736 5740 5742
5637 5633 5632 5631 5627 5622 5617 5614 5609 5605 5602 5602 5599 5599 5597 5596 5591 5587 5583 5579 5577 5583 5586 5598 5606 5616 5631 5643 5655 5668 5677 5684 5691 5695 5700 5704 5708 5712 5716 5720 5725 5729 5732 5735
5630 5629 5626 5624 5621 5617 5614 5609 5603 5598 5594 5595 5592 5590 5590 5588 5584 5583 5577 5573 5570 5573 5585 5597 5607 5614 5622 5636 5647 5658 5665 5673 5679 5684 5690 5695 5699 5703 5709 5713 5718 5722 5725 5728
5624 5623 5620 5617 5614 5611 5607 5602 5600 5596 5592 5586 5586 5582 5581 5581 5580 5580 5575 5572 5565 5570 5580 5586 5592 5608 5617 5627 5638 5646 5651 5659 5667 5676 5683 5688 5691 5697 5703 5707 5712 5716 5719 5722
5618 5618 5614 5614 5608 5606 5603 5599 5595 5592 5587 5584 5580 5575 5573 5574 5576 5574 5572 5569 5570 5572 5580 5583 5594 5601 5610 5615 5622 5631 5641 5651 5660 5667 5674 5680 5687 5692 5697 5702 5706 5710 5714 5716
5609 5610 5609 5607 5604 5603 5598 5594 5590 5585 5582 5581 5578 5574 5571 5569 5569 5568 5567 5566 5568 5571 5573 5579 5585 5591 5598 5608 5614 5624 5635 5640 5653 5662 5668 5675 5681 5687 5693 5698 5702 5705 5708 5710
5604 5603 5601 5598 5598 5597 5593 5589 5584 5581 5579 5576 5573 5570 5567 5565 5563 5563 5565 5568 5566 5569 5573 5575 5579 5585 5594 5603 5611 5617 5611 5632 5645 5656 5662 5671 5678 5683 5689 5693 5696 5699 5701 5703
5597 5597 5595 5593 5592 5592 5587 5583 5580 5577 5575 5570 5568 5564 5560 5559 5558 5559 5564 5564 5565 5565 5568 5571 5577 5585 5594 5602 5601 5609 5621 5629 5641 5652 5661 5669 5675 5680 5685 5689 5691 5693 5696 5698
5593 5591 5589 5587 5585 5586 5582 5578 5575 5571 5570 5565 5563 5559 5554 5553 5553 5558 5559 5561 5564 5561 5566 5574 5580 5585 5587 5589 5597 5588 5611 5627 5637 5650 5661 5667 5671 5676 5681 5685 5688 5691 5693 5695
5587 5586 5584 5581 5578 5580 5575 5572 5569 5566 5564 5557 5554 5552 5551 5551 5552 5555 5556 5557 5559 5559 5566 5572 5575 5584 5591 5590 5596 5607 5613 5619 5637 5650 5658 5663 5668 5673 5678 5682 5685 5688 5691 5692
5582 5580 5578 5576 5574 5574 5569 5566 5564 5560 5555 5549 5545 5544 5544 5546 5546 5550 5551 5551 5555 5559 5563 5567 5576 5585 5594 5594 5596 5592 5588 5620 5639 5649 5656 5660 5666 5672 5675 5679 5683 5686 5687 5687
5578 5575 5572 5570 5569 5565 5562 5559 5556 5551 5547 5543 5537 5537 5535 5537 5540 5542 5545 5546 5549 5554 5558 5568 5578 5586 5593 5596 5599 5597 5615 5626 5638 5646 5652 5659 5664 5670 5673 5677 5680 5681 5682 5683
5571 5567 5566 5564 5564 5560 5557 5552 5547 5542 5537 5532 5527 5519 5523 5527 5532 5534 5540 5543 5545 5552 5560 5571 5578 5585 5592 5595 5602 5609 5618 5625 5637 5646 5652 5658 5663 5668 5671 5674 5676 5677 5678 5679
5562 5562 5561 5560 5556 5553 5548 5547 5543 5536 5528 5520 5515 5512 5510 5518 5524 5525 5533 5537 5544 5552 5562 5573 5580 5585 5589 5592 5593 5608 5618 5624 5636 5644 5652 5657 5662 5666 5669 5671 5673 5674 5675 5676
5556 5557 5556 5553 5550 5547 5542 5538 5531 5525 5519 5513 5507 5506 5503 5510 5515 5518 5526 5535 5546 5554 5565 5573 5581 5584 5589 5590 5592 5604 5621 5627 5636 5644 5651 5655 5660 5664 5666 5668 5670 5672 5672 5671